Regional Weather Roundup
Issued by NWS

Home | Current Version | Previous Version | Graphics & Text | Print | Product List | Glossary On
Versions: 1 2 3 4 5 6 7 8 9 10 11 12 13 14 15 16 17 18 19 20 21 22 23 24 25 26 27 28 29 30 31 32 33 34 35 36 37 38 39 40 41 42 43 44 45 46 47 48 49 50
932
ASUS43 KLMK 272010
RWRKY
KENTUCKY REGIONAL WEATHER ROUNDUP
NATIONAL WEATHER SERVICE LOUISVILLE KY
400 PM EDT SUN MAY 27 2018

NOTE "FAIR" INDICATES FEW OR NO CLOUDS BELOW 12,000 FEET
WITH NO SIGNIFICANT WEATHER AND/OR OBSTRUCTIONS TO VISIBILITY.

KYZ001>023-026-027-061>063-070>075-272100-
WESTERN AND SOUTH CENTRAL KENTUCKY

CITY           SKY/WX    TMP DP  RH WIND       PRES   REMARKS
PADUCAH        PTSUNNY   88  71  57 CALM      29.87F HX  94
HENDERSON      FAIR      90  69  50 CALM      29.87F HX  94
OWENSBORO      FAIR      91  68  46 S5        29.88F HX  95
HOPKINSVILLE   LGT RAIN  77  66  69 S5        29.89S
BOWLING GREEN  PTSUNNY   87  68  52 CALM      29.89F HX  90
GLASGOW        FAIR      91  65  41 W6        29.90F HX  92
$$

KYZ024-025-028>034-038-045-046-053-272100-
NORTH CENTRAL KENTUCKY

CITY           SKY/WX    TMP DP  RH WIND       PRES   REMARKS
LOUISVILLE/SDF PTSUNNY   86  69  56 NE5       29.89F HX  90
LOUISVILLE/LOU PTSUNNY   85  73  67 E8        29.90F HX  91
FORT KNOX      FAIR      86  67  53 SW3       29.90F
$$

KYZ035>037-039>044-047>052-055>060-089>105-272100-
NORTHEAST KENTUCKY

CITY           SKY/WX    TMP DP  RH WIND       PRES   REMARKS
LEXINGTON      FAIR      85  67  54 N3        29.92F
COVINGTON      FAIR      87  67  51 S3        29.91F HX  90
FRANKFORT      FAIR      88  66  48 CALM      29.90F HX  90
$$

KYZ054-064>069-076>088-106>120-272100-
SOUTHEAST KENTUCKY

CITY           SKY/WX    TMP DP  RH WIND       PRES   REMARKS
JACKSON        FAIR      81  70  69 VRB6      29.95F
LONDON         FAIR      78  69  73 N13G20    29.95S
SOMERSET       PTSUNNY   79  68  69 MISG      29.95S
MIDDLESBORO    FAIR      83  67  59 SE5       29.95F
MONTICELLO     MOCLDY    77  71  82 W6        29.96S
$$





USA.gov is the U.S. government's official web portal to all federal, state and local government web resources and services.